Time,TemperatureF,DewpointF,PressureIn,WindDirection,WindDirectionDegrees,WindSpeedMPH,WindSpeedGustMPH,Humidity,HourlyPrecipIn,Conditions,Clouds,dailyrainin,SoftwareType,DateUTC
2013-01-31 00:02:00,14.8,10.3,29.59,NNE,23,4.9,6.3,82,0.00,,,0.00,WUHU216HW,2013-01-31 06:02:00,
2013-01-31 00:07:00,14.8,10.0,29.59,NNE,23,1.8,7.8,81,0.00,,,0.00,WUHU216HW,2013-01-31 06:07:00,
2013-01-31 00:12:00,14.6,9.8,29.59,NNE,23,3.8,9.8,81,0.00,,,0.00,WUHU216HW,2013-01-31 06:12:00,
2013-01-31 00:17:00,14.6,9.8,29.59,NNE,23,2.9,9.8,81,0.00,,,0.00,WUHU216HW,2013-01-31 06:17:00,
2013-01-31 00:22:00,14.6,9.8,29.59,NNE,23,6.0,9.8,81,0.00,,,0.00,WUHU216HW,2013-01-31 06:22:00,
2013-01-31 00:27:00,14.6,9.8,29.59,NNE,23,5.4,9.2,81,0.00,,,0.00,WUHU216HW,2013-01-31 06:27:00,
2013-01-31 00:32:00,14.6,9.8,29.60,NNE,23,4.7,6.3,81,0.00,,,0.00,WUHU216HW,2013-01-31 06:32:00,
2013-01-31 00:37:00,14.8,10.0,29.60,NNE,23,6.3,8.9,81,0.00,,,0.00,WUHU216HW,2013-01-31 06:37:00,
2013-01-31 00:42:00,14.6,9.8,29.60,NNE,23,6.0,8.9,81,0.00,,,0.00,WUHU216HW,2013-01-31 06:42:00,
2013-01-31 00:47:00,14.6,9.8,29.60,NNE,23,5.6,7.6,81,0.00,,,0.00,WUHU216HW,2013-01-31 06:47:00,
2013-01-31 00:52:00,14.6,9.8,29.60,NNE,23,3.4,8.5,81,0.00,,,0.00,WUHU216HW,2013-01-31 06:52:00,
2013-01-31 00:57:00,14.6,9.8,29.60,NNE,23,4.9,8.5,81,0.00,,,0.00,WUHU216HW,2013-01-31 06:57:00,
2013-01-31 01:02:00,14.4,9.4,29.61,NNE,23,3.8,8.5,80,0.00,,,0.00,WUHU216HW,2013-01-31 07:02:00,
2013-01-31 01:07:00,14.4,9.4,29.61,NNE,23,4.9,8.5,80,0.00,,,0.00,WUHU216HW,2013-01-31 07:07:00,
2013-01-31 01:12:00,14.2,9.2,29.61,NNE,23,8.5,9.4,80,0.00,,,0.00,WUHU216HW,2013-01-31 07:12:00,
2013-01-31 01:17:00,14.0,8.1,29.61,NNE,23,6.7,10.7,77,0.00,,,0.00,WUHU216HW,2013-01-31 07:17:00,
2013-01-31 01:22:00,14.0,8.1,29.62,NNE,23,4.3,10.7,77,0.00,,,0.00,WUHU216HW,2013-01-31 07:22:00,
2013-01-31 01:27:00,14.0,7.8,29.62,NNE,23,7.8,9.6,76,0.00,,,0.00,WUHU216HW,2013-01-31 07:27:00,
2013-01-31 01:32:00,14.0,7.8,29.62,NNE,23,7.8,10.1,76,0.00,,,0.00,WUHU216HW,2013-01-31 07:32:00,
2013-01-31 01:37:00,14.0,7.8,29.62,NNE,23,2.5,10.1,76,0.00,,,0.00,WUHU216HW,2013-01-31 07:37:00,
2013-01-31 01:42:00,14.0,7.8,29.62,NNE,23,4.0,7.8,76,0.00,,,0.00,WUHU216HW,2013-01-31 07:42:00,
2013-01-31 01:47:00,14.0,8.1,29.62,NNE,23,4.7,7.4,77,0.00,,,0.00,WUHU216HW,2013-01-31 07:47:00,
2013-01-31 01:52:00,14.0,8.5,29.63,NNE,23,7.6,7.6,78,0.00,,,0.00,WUHU216HW,2013-01-31 07:52:00,
2013-01-31 01:57:00,13.9,8.6,29.63,NNE,23,5.4,8.5,79,0.00,,,0.00,WUHU216HW,2013-01-31 07:57:00,
2013-01-31 02:02:00,13.7,8.4,29.63,NNE,23,4.7,8.5,79,0.00,,,0.00,WUHU216HW,2013-01-31 08:02:00,
2013-01-31 02:07:00,13.7,8.4,29.63,NNE,23,5.6,8.3,79,0.00,,,0.00,WUHU216HW,2013-01-31 08:07:00,
2013-01-31 02:12:00,13.5,8.2,29.63,NNE,23,4.3,6.5,79,0.00,,,0.00,WUHU216HW,2013-01-31 08:12:00,
2013-01-31 02:17:00,13.3,8.0,29.64,NNE,23,7.2,7.2,79,0.00,,,0.00,WUHU216HW,2013-01-31 08:17:00,
2013-01-31 02:22:00,13.3,8.0,29.64,NNE,23,4.3,7.2,79,0.00,,,0.00,WUHU216HW,2013-01-31 08:22:00,
2013-01-31 02:27:00,13.3,8.0,29.64,NNE,23,3.4,7.2,79,0.00,,,0.00,WUHU216HW,2013-01-31 08:27:00,
2013-01-31 02:32:00,13.3,8.0,29.64,NNE,23,4.3,6.0,79,0.00,,,0.00,WUHU216HW,2013-01-31 08:32:00,
2013-01-31 02:37:00,13.3,8.0,29.64,NNE,23,3.6,6.0,79,0.00,,,0.00,WUHU216HW,2013-01-31 08:37:00,
2013-01-31 02:42:00,13.3,8.0,29.64,NNE,23,6.5,6.5,79,0.00,,,0.00,WUHU216HW,2013-01-31 08:42:00,
2013-01-31 02:47:00,13.3,8.0,29.64,NNE,23,2.7,6.5,79,0.00,,,0.00,WUHU216HW,2013-01-31 08:47:00,
2013-01-31 02:52:00,13.3,7.8,29.64,NNE,23,4.7,6.0,78,0.00,,,0.00,WUHU216HW,2013-01-31 08:52:00,
2013-01-31 02:57:00,13.3,7.8,29.64,NNE,23,4.7,7.2,78,0.00,,,0.00,WUHU216HW,2013-01-31 08:57:00,
2013-01-31 03:02:00,13.3,8.0,29.64,NNE,23,9.2,9.2,79,0.00,,,0.00,WUHU216HW,2013-01-31 09:02:00,
2013-01-31 03:07:00,13.3,7.8,29.64,NNE,23,2.9,9.2,78,0.00,,,0.00,WUHU216HW,2013-01-31 09:07:00,
2013-01-31 03:12:00,13.3,7.8,29.64,NNE,23,4.0,6.5,78,0.00,,,0.00,WUHU216HW,2013-01-31 09:12:00,
2013-01-31 03:17:00,13.3,7.8,29.63,NNE,23,6.7,9.8,78,0.00,,,0.00,WUHU216HW,2013-01-31 09:17:00,
2013-01-31 03:22:00,13.3,7.4,29.64,NNE,23,7.6,9.8,77,0.00,,,0.00,WUHU216HW,2013-01-31 09:22:00,
2013-01-31 03:27:00,13.3,7.4,29.64,NNE,23,8.9,8.9,77,0.00,,,0.00,WUHU216HW,2013-01-31 09:27:00,
2013-01-31 03:32:00,13.3,7.8,29.64,NNE,23,4.9,8.9,78,0.00,,,0.00,WUHU216HW,2013-01-31 09:32:00,
2013-01-31 03:37:00,13.3,7.8,29.64,NNE,23,4.0,8.9,78,0.00,,,0.00,WUHU216HW,2013-01-31 09:37:00,
2013-01-31 03:42:00,13.3,7.8,29.64,NNE,23,2.2,7.6,78,0.00,,,0.00,WUHU216HW,2013-01-31 09:42:00,
2013-01-31 03:47:00,13.3,7.8,29.65,NNE,23,3.4,7.6,78,0.00,,,0.00,WUHU216HW,2013-01-31 09:47:00,
2013-01-31 03:52:00,13.3,7.8,29.64,NNE,23,3.6,10.3,78,0.00,,,0.00,WUHU216HW,2013-01-31 09:52:00,
2013-01-31 03:57:00,13.3,7.4,29.64,NNE,23,5.4,10.3,77,0.00,,,0.00,WUHU216HW,2013-01-31 09:57:00,
2013-01-31 04:02:00,13.3,7.4,29.64,NNE,23,4.3,9.8,77,0.00,,,0.00,WUHU216HW,2013-01-31 10:02:00,
2013-01-31 04:07:00,13.3,7.4,29.65,NNE,23,6.3,9.8,77,0.00,,,0.00,WUHU216HW,2013-01-31 10:07:00,
2013-01-31 04:12:00,13.3,7.8,29.65,NNE,23,3.4,6.7,78,0.00,,,0.00,WUHU216HW,2013-01-31 10:12:00,
2013-01-31 04:17:00,13.3,7.8,29.65,NNE,23,2.9,6.3,78,0.00,,,0.00,WUHU216HW,2013-01-31 10:17:00,
2013-01-31 04:22:00,13.1,7.8,29.65,NNE,23,2.7,6.3,79,0.00,,,0.00,WUHU216HW,2013-01-31 10:22:00,
2013-01-31 04:27:00,13.1,8.1,29.65,NNE,23,3.1,5.1,80,0.00,,,0.00,WUHU216HW,2013-01-31 10:27:00,
2013-01-31 04:32:00,13.1,8.4,29.65,NNE,23,3.8,6.9,81,0.00,,,0.00,WUHU216HW,2013-01-31 10:32:00,
2013-01-31 04:37:00,13.1,8.4,29.65,NNE,23,4.9,6.9,81,0.00,,,0.00,WUHU216HW,2013-01-31 10:37:00,
2013-01-31 04:42:00,13.1,8.4,29.66,NNE,23,4.0,5.1,81,0.00,,,0.00,WUHU216HW,2013-01-31 10:42:00,
2013-01-31 04:47:00,13.1,8.4,29.66,NNE,23,3.6,5.8,81,0.00,,,0.00,WUHU216HW,2013-01-31 10:47:00,
2013-01-31 04:52:00,13.0,8.5,29.66,NNE,23,4.7,7.2,82,0.00,,,0.00,WUHU216HW,2013-01-31 10:52:00,
2013-01-31 04:57:00,13.0,8.2,29.66,NNE,23,4.3,7.2,81,0.00,,,0.00,WUHU216HW,2013-01-31 10:57:00,
2013-01-31 05:02:00,12.8,8.3,29.66,NNE,23,2.5,5.1,82,0.00,,,0.00,WUHU216HW,2013-01-31 11:02:00,
2013-01-31 05:07:00,12.6,8.1,29.66,NNE,23,4.5,8.5,82,0.00,,,0.00,WUHU216HW,2013-01-31 11:07:00,
2013-01-31 05:12:00,12.6,7.8,29.66,NNE,23,4.9,8.5,81,0.00,,,0.00,WUHU216HW,2013-01-31 11:12:00,
2013-01-31 05:17:00,12.4,7.7,29.66,NNE,23,4.3,8.5,81,0.00,,,0.00,WUHU216HW,2013-01-31 11:17:00,
2013-01-31 05:22:00,12.2,7.2,29.66,NNE,23,4.7,7.8,80,0.00,,,0.00,WUHU216HW,2013-01-31 11:22:00,
2013-01-31 05:27:00,12.1,6.8,29.66,NNE,23,4.7,7.8,79,0.00,,,0.00,WUHU216HW,2013-01-31 11:27:00,
2013-01-31 05:32:00,11.9,6.3,29.67,NNE,23,3.4,7.6,78,0.00,,,0.00,WUHU216HW,2013-01-31 11:32:00,
2013-01-31 05:37:00,11.9,6.3,29.67,NNE,23,6.0,7.6,78,0.00,,,0.00,WUHU216HW,2013-01-31 11:37:00,
2013-01-31 05:42:00,11.9,6.3,29.67,NNE,23,6.0,6.7,78,0.00,,,0.00,WUHU216HW,2013-01-31 11:42:00,
2013-01-31 05:47:00,11.7,6.1,29.67,NNE,23,5.4,8.3,78,0.00,,,0.00,WUHU216HW,2013-01-31 11:47:00,
2013-01-31 05:52:00,11.5,5.6,29.67,NNE,23,3.6,8.3,77,0.00,,,0.00,WUHU216HW,2013-01-31 11:52:00,
2013-01-31 05:58:00,11.3,5.4,29.67,NNE,23,5.6,8.1,77,0.00,,,0.00,WUHU216HW,2013-01-31 11:58:00,
2013-01-31 06:03:00,11.2,5.2,29.68,NNE,23,6.7,8.3,77,0.00,,,0.00,WUHU216HW,2013-01-31 12:03:00,
2013-01-31 06:08:00,11.2,5.2,29.68,NNE,23,5.1,11.4,77,0.00,,,0.00,WUHU216HW,2013-01-31 12:08:00,
2013-01-31 06:13:00,11.2,5.2,29.68,NNE,23,7.8,11.4,77,0.00,,,0.00,WUHU216HW,2013-01-31 12:13:00,
2013-01-31 06:18:00,11.2,5.2,29.68,NNE,23,5.1,9.4,77,0.00,,,0.00,WUHU216HW,2013-01-31 12:18:00,
2013-01-31 06:23:00,11.2,5.0,29.68,NNE,23,6.0,15.0,76,0.00,,,0.00,WUHU216HW,2013-01-31 12:23:00,
2013-01-31 06:28:00,11.2,5.0,29.69,NNE,23,4.3,15.0,76,0.00,,,0.00,WUHU216HW,2013-01-31 12:28:00,
2013-01-31 06:33:00,11.2,5.2,29.69,NNE,23,6.3,9.4,77,0.00,,,0.00,WUHU216HW,2013-01-31 12:33:00,
2013-01-31 06:38:00,11.2,5.2,29.69,NNE,23,4.5,9.4,77,0.00,,,0.00,WUHU216HW,2013-01-31 12:38:00,
2013-01-31 06:43:00,10.8,4.9,29.69,NNE,23,5.4,7.8,77,0.00,,,0.00,WUHU216HW,2013-01-31 12:43:00,
2013-01-31 06:48:00,10.8,4.6,29.70,NNE,23,6.9,10.3,76,0.00,,,0.00,WUHU216HW,2013-01-31 12:48:00,
2013-01-31 06:53:00,10.6,4.7,29.70,NNE,23,8.1,10.5,77,0.00,,,0.00,WUHU216HW,2013-01-31 12:53:00,
2013-01-31 06:58:00,10.6,4.7,29.70,NNE,23,6.3,11.9,77,0.00,,,0.00,WUHU216HW,2013-01-31 12:58:00,
2013-01-31 07:03:00,10.4,4.2,29.70,NNE,23,7.4,11.9,76,0.00,,,0.00,WUHU216HW,2013-01-31 13:03:00,
2013-01-31 07:08:00,10.3,3.8,29.71,NNE,23,8.5,9.6,75,0.00,,,0.00,WUHU216HW,2013-01-31 13:08:00,
2013-01-31 07:13:00,10.1,3.3,29.71,NNE,23,5.1,9.8,74,0.00,,,0.00,WUHU216HW,2013-01-31 13:13:00,
2013-01-31 07:18:00,10.1,3.3,29.71,NNE,23,6.3,11.4,74,0.00,,,0.00,WUHU216HW,2013-01-31 13:18:00,
2013-01-31 07:23:00,9.9,3.2,29.71,NNE,23,7.4,11.4,74,0.00,,,0.00,WUHU216HW,2013-01-31 13:23:00,
2013-01-31 07:28:00,9.9,3.5,29.72,NNE,23,5.8,8.9,75,0.00,,,0.00,WUHU216HW,2013-01-31 13:28:00,
2013-01-31 07:33:00,9.9,3.8,29.72,NNE,23,5.1,7.6,76,0.00,,,0.00,WUHU216HW,2013-01-31 13:33:00,
2013-01-31 07:38:00,10.1,4.2,29.72,NNE,23,3.4,10.5,77,0.00,,,0.00,WUHU216HW,2013-01-31 13:38:00,
2013-01-31 07:43:00,10.3,4.4,29.72,NNE,23,3.4,10.5,77,0.00,,,0.00,WUHU216HW,2013-01-31 13:43:00,
2013-01-31 07:48:00,10.4,4.5,29.73,NNE,23,3.6,6.0,77,0.00,,,0.00,WUHU216HW,2013-01-31 13:48:00,
2013-01-31 07:53:00,10.4,4.5,29.72,NNE,23,4.7,8.1,77,0.00,,,0.00,WUHU216HW,2013-01-31 13:53:00,
2013-01-31 07:58:00,10.4,4.9,29.72,NNE,23,3.6,8.1,78,0.00,,,0.00,WUHU216HW,2013-01-31 13:58:00,
2013-01-31 08:03:00,10.4,4.9,29.73,NNE,23,4.7,7.4,78,0.00,,,0.00,WUHU216HW,2013-01-31 14:03:00,
2013-01-31 08:08:00,10.6,5.3,29.73,NNE,23,8.5,9.2,79,0.00,,,0.00,WUHU216HW,2013-01-31 14:08:00,
2013-01-31 08:13:00,10.4,5.1,29.73,NNE,23,5.8,9.2,79,0.00,,,0.00,WUHU216HW,2013-01-31 14:13:00,
2013-01-31 08:18:00,10.8,5.8,29.73,NNE,23,3.4,8.5,80,0.00,,,0.00,WUHU216HW,2013-01-31 14:18:00,
2013-01-31 08:23:00,11.2,6.1,29.74,NNE,23,2.0,6.9,80,0.00,,,0.00,WUHU216HW,2013-01-31 14:23:00,
2013-01-31 08:28:00,11.2,6.1,29.74,NNE,23,2.7,7.4,80,0.00,,,0.00,WUHU216HW,2013-01-31 14:28:00,
2013-01-31 08:33:00,11.0,5.7,29.74,NNE,23,4.5,7.6,79,0.00,,,0.00,WUHU216HW,2013-01-31 14:33:00,
2013-01-31 08:38:00,11.2,5.9,29.75,NNE,23,3.8,7.6,79,0.00,,,0.00,WUHU216HW,2013-01-31 14:38:00,
2013-01-31 08:43:00,11.2,5.6,29.74,NNE,23,3.8,6.3,78,0.00,,,0.00,WUHU216HW,2013-01-31 14:43:00,
2013-01-31 08:48:00,11.0,5.4,29.75,NNE,23,9.2,9.2,78,0.00,,,0.00,WUHU216HW,2013-01-31 14:48:00,
2013-01-31 08:53:00,10.8,4.9,29.74,NNE,23,6.0,9.2,77,0.00,,,0.00,WUHU216HW,2013-01-31 14:53:00,
2013-01-31 08:58:00,10.6,4.1,29.75,NNE,23,5.4,9.2,75,0.00,,,0.00,WUHU216HW,2013-01-31 14:58:00,
2013-01-31 09:03:00,10.6,4.1,29.75,NNE,23,4.7,9.2,75,0.00,,,0.00,WUHU216HW,2013-01-31 15:03:00,
2013-01-31 09:08:00,10.8,4.3,29.75,North,0,6.9,11.2,75,0.00,,,0.00,WUHU216HW,2013-01-31 15:08:00,
2013-01-31 09:13:00,11.2,4.7,29.75,West,270,3.1,11.2,75,0.00,,,0.00,WUHU216HW,2013-01-31 15:13:00,
2013-01-31 09:18:00,11.5,4.8,29.75,North,0,6.9,8.7,74,0.00,,,0.00,WUHU216HW,2013-01-31 15:18:00,
2013-01-31 09:24:00,11.7,4.7,29.75,NNE,23,7.4,8.7,73,0.00,,,0.00,WUHU216HW,2013-01-31 15:24:00,
2013-01-31 09:29:00,11.5,4.5,29.75,NNE,23,4.0,11.2,73,0.00,,,0.00,WUHU216HW,2013-01-31 15:29:00,
2013-01-31 09:34:00,11.5,4.5,29.76,North,0,6.3,11.2,73,0.00,,,0.00,WUHU216HW,2013-01-31 15:34:00,
2013-01-31 09:39:00,11.5,4.5,29.76,North,0,4.0,9.2,73,0.00,,,0.00,WUHU216HW,2013-01-31 15:39:00,
2013-01-31 09:44:00,11.5,4.8,29.76,West,270,6.9,13.4,74,0.00,,,0.00,WUHU216HW,2013-01-31 15:44:00,
2013-01-31 09:49:00,11.7,4.7,29.77,NNW,338,6.9,13.4,73,0.00,,,0.00,WUHU216HW,2013-01-31 15:49:00,
2013-01-31 09:54:00,11.9,4.9,29.77,NNW,338,7.4,8.7,73,0.00,,,0.00,WUHU216HW,2013-01-31 15:54:00,
2013-01-31 09:59:00,11.3,4.0,29.77,North,0,8.7,9.6,72,0.00,,,0.00,WUHU216HW,2013-01-31 15:59:00,
2013-01-31 10:04:00,11.9,4.9,29.77,NW,315,8.9,9.6,73,0.00,,,0.00,WUHU216HW,2013-01-31 16:04:00,
2013-01-31 10:09:00,12.1,4.7,29.77,WSW,248,6.3,10.7,72,0.00,,,0.00,WUHU216HW,2013-01-31 16:09:00,
2013-01-31 10:14:00,11.5,4.1,29.78,NW,315,6.9,10.7,72,0.00,,,0.00,WUHU216HW,2013-01-31 16:14:00,
2013-01-31 10:19:00,11.5,4.1,29.78,NNW,338,5.1,11.4,72,0.00,,,0.00,WUHU216HW,2013-01-31 16:19:00,
2013-01-31 10:24:00,11.7,4.7,29.79,North,0,5.6,14.8,73,0.00,,,0.00,WUHU216HW,2013-01-31 16:24:00,
2013-01-31 10:29:00,11.3,4.6,29.79,NNE,23,11.2,14.8,74,0.00,,,0.00,WUHU216HW,2013-01-31 16:29:00,
2013-01-31 10:34:00,11.2,4.4,29.79,North,0,7.6,11.9,74,0.00,,,0.00,WUHU216HW,2013-01-31 16:34:00,
2013-01-31 10:39:00,11.3,4.9,29.79,NW,315,6.5,11.2,75,0.00,,,0.00,WUHU216HW,2013-01-31 16:39:00,
2013-01-31 10:44:00,11.3,5.1,29.80,NW,315,6.3,11.0,76,0.00,,,0.00,WUHU216HW,2013-01-31 16:44:00,
2013-01-31 10:49:00,11.3,5.4,29.79,NW,315,5.1,11.0,77,0.00,,,0.00,WUHU216HW,2013-01-31 16:49:00,
2013-01-31 10:54:00,11.9,5.9,29.80,NNE,23,7.6,8.3,77,0.00,,,0.00,WUHU216HW,2013-01-31 16:54:00,
2013-01-31 10:59:00,11.9,5.4,29.80,North,0,6.0,8.5,75,0.00,,,0.00,WUHU216HW,2013-01-31 16:59:00,
2013-01-31 11:04:00,11.5,4.8,29.80,NNE,23,5.8,8.5,74,0.00,,,0.00,WUHU216HW,2013-01-31 17:04:00,
2013-01-31 11:09:00,11.0,3.3,29.80,NNW,338,11.2,11.4,71,0.00,,,0.00,WUHU216HW,2013-01-31 17:09:00,
2013-01-31 11:14:00,10.4,2.8,29.79,NNW,338,11.2,13.0,71,0.00,,,0.00,WUHU216HW,2013-01-31 17:14:00,
2013-01-31 11:19:00,11.2,3.5,29.80,North,0,4.7,13.0,71,0.00,,,0.00,WUHU216HW,2013-01-31 17:19:00,
2013-01-31 11:24:00,11.2,3.5,29.80,NNW,338,8.5,12.5,71,0.00,,,0.00,WUHU216HW,2013-01-31 17:24:00,
2013-01-31 11:29:00,11.7,4.1,29.80,North,0,6.3,11.0,71,0.00,,,0.00,WUHU216HW,2013-01-31 17:29:00,
2013-01-31 11:34:00,12.4,4.8,29.80,NNE,23,6.0,11.0,71,0.00,,,0.00,WUHU216HW,2013-01-31 17:34:00,
2013-01-31 11:39:00,12.6,4.3,29.80,West,270,7.6,11.6,69,0.00,,,0.00,WUHU216HW,2013-01-31 17:39:00,
2013-01-31 11:44:00,11.9,3.2,29.80,North,0,8.1,11.6,68,0.00,,,0.00,WUHU216HW,2013-01-31 17:44:00,
2013-01-31 11:49:00,11.7,3.4,29.81,North,0,5.4,11.2,69,0.00,,,0.00,WUHU216HW,2013-01-31 17:49:00,
2013-01-31 11:54:00,11.5,3.2,29.80,NNW,338,6.9,13.4,69,0.00,,,0.00,WUHU216HW,2013-01-31 17:54:00,
2013-01-31 11:59:00,11.7,3.8,29.81,NW,315,9.2,13.4,70,0.00,,,0.00,WUHU216HW,2013-01-31 17:59:00,
2013-01-31 12:04:00,11.9,4.2,29.81,ENE,68,4.3,9.2,71,0.00,,,0.00,WUHU216HW,2013-01-31 18:04:00,
2013-01-31 12:09:00,11.7,4.1,29.81,NNW,338,4.0,12.1,71,0.00,,,0.00,WUHU216HW,2013-01-31 18:09:00,
2013-01-31 12:14:00,11.2,3.5,29.81,North,0,10.7,14.3,71,0.00,,,0.00,WUHU216HW,2013-01-31 18:14:00,
2013-01-31 12:19:00,11.0,3.6,29.81,WNW,293,5.8,15.9,72,0.00,,,0.00,WUHU216HW,2013-01-31 18:19:00,
2013-01-31 12:24:00,11.3,3.4,29.81,North,0,13.2,15.9,70,0.00,,,0.00,WUHU216HW,2013-01-31 18:24:00,
2013-01-31 12:29:00,11.7,3.8,29.82,NNE,23,4.7,14.1,70,0.00,,,0.00,WUHU216HW,2013-01-31 18:29:00,
2013-01-31 12:34:00,12.2,3.6,29.82,NNW,338,10.5,12.5,68,0.00,,,0.00,WUHU216HW,2013-01-31 18:34:00,
2013-01-31 12:39:00,12.1,3.4,29.82,NW,315,5.4,10.5,68,0.00,,,0.00,WUHU216HW,2013-01-31 18:39:00,
2013-01-31 12:44:00,12.4,3.5,29.82,North,0,3.4,10.5,67,0.00,,,0.00,WUHU216HW,2013-01-31 18:44:00,
2013-01-31 12:49:00,12.4,3.5,29.82,WSW,248,6.9,8.5,67,0.00,,,0.00,WUHU216HW,2013-01-31 18:49:00,
2013-01-31 12:54:00,12.2,3.6,29.82,North,0,7.6,9.8,68,0.00,,,0.00,WUHU216HW,2013-01-31 18:54:00,
2013-01-31 12:59:00,12.1,3.4,29.82,North,0,4.0,12.1,68,0.00,,,0.00,WUHU216HW,2013-01-31 18:59:00,
2013-01-31 13:04:00,12.2,3.6,29.82,North,0,2.7,12.1,68,0.00,,,0.00,WUHU216HW,2013-01-31 19:04:00,
2013-01-31 13:09:00,12.1,3.4,29.82,NNE,23,4.7,11.0,68,0.00,,,0.00,WUHU216HW,2013-01-31 19:09:00,
2013-01-31 13:14:00,12.2,3.6,29.82,NNE,23,6.0,11.0,68,0.00,,,0.00,WUHU216HW,2013-01-31 19:14:00,
2013-01-31 13:19:00,12.4,3.8,29.82,North,0,4.5,8.5,68,0.00,,,0.00,WUHU216HW,2013-01-31 19:19:00,
2013-01-31 13:24:00,12.4,3.5,29.82,NNE,23,6.0,9.2,67,0.00,,,0.00,WUHU216HW,2013-01-31 19:24:00,
2013-01-31 13:29:00,12.6,4.0,29.83,NNW,338,7.4,9.2,68,0.00,,,0.00,WUHU216HW,2013-01-31 19:29:00,
2013-01-31 13:34:00,12.6,3.7,29.83,NNW,338,5.4,8.5,67,0.00,,,0.00,WUHU216HW,2013-01-31 19:34:00,
2013-01-31 13:39:00,12.6,4.0,29.83,WNW,293,5.4,8.1,68,0.00,,,0.00,WUHU216HW,2013-01-31 19:39:00,
2013-01-31 13:44:00,12.6,4.0,29.83,NNE,23,2.9,7.6,68,0.00,,,0.00,WUHU216HW,2013-01-31 19:44:00,
2013-01-31 13:49:00,12.2,4.6,29.83,North,0,6.0,7.4,71,0.00,,,0.00,WUHU216HW,2013-01-31 19:49:00,
2013-01-31 13:54:00,11.9,4.5,29.84,NW,315,3.4,6.3,72,0.00,,,0.00,WUHU216HW,2013-01-31 19:54:00,
2013-01-31 14:00:00,12.1,5.6,29.84,NNE,23,4.3,6.0,75,0.00,,,0.00,WUHU216HW,2013-01-31 20:00:00,
2013-01-31 14:05:00,11.9,5.4,29.84,WNW,293,3.4,5.8,75,0.00,,,0.00,WUHU216HW,2013-01-31 20:05:00,
2013-01-31 14:10:00,11.7,5.8,29.84,NNW,338,2.7,5.6,77,0.00,,,0.00,WUHU216HW,2013-01-31 20:10:00,
2013-01-31 14:15:00,11.9,5.9,29.84,NW,315,3.8,5.1,77,0.00,,,0.00,WUHU216HW,2013-01-31 20:15:00,
2013-01-31 14:20:00,11.9,5.9,29.84,NNE,23,3.4,5.1,77,0.00,,,0.00,WUHU216HW,2013-01-31 20:20:00,
2013-01-31 14:25:00,11.5,6.2,29.84,NE,45,7.2,7.2,79,0.00,,,0.00,WUHU216HW,2013-01-31 20:25:00,
2013-01-31 14:30:00,11.7,6.4,29.84,East,90,5.1,7.8,79,0.00,,,0.00,WUHU216HW,2013-01-31 20:30:00,
2013-01-31 14:35:00,11.9,5.9,29.85,North,0,2.2,7.8,77,0.00,,,0.00,WUHU216HW,2013-01-31 20:35:00,
2013-01-31 14:40:00,11.5,6.0,29.85,North,0,5.8,10.3,78,0.00,,,0.00,WUHU216HW,2013-01-31 20:40:00,
2013-01-31 14:45:00,11.3,6.3,29.85,WSW,248,3.4,10.3,80,0.00,,,0.00,WUHU216HW,2013-01-31 20:45:00,
2013-01-31 14:50:00,11.3,6.6,29.85,North,0,3.4,6.9,81,0.00,,,0.00,WUHU216HW,2013-01-31 20:50:00,
2013-01-31 14:55:00,11.2,6.4,29.85,WNW,293,5.1,7.6,81,0.00,,,0.00,WUHU216HW,2013-01-31 20:55:00,
2013-01-31 15:00:00,11.2,6.4,29.85,WSW,248,5.4,7.6,81,0.00,,,0.00,WUHU216HW,2013-01-31 21:00:00,
2013-01-31 15:05:00,11.0,6.2,29.85,NNW,338,3.4,9.6,81,0.00,,,0.00,WUHU216HW,2013-01-31 21:05:00,
2013-01-31 15:10:00,11.0,6.2,29.86,NNE,23,2.9,9.6,81,0.00,,,0.00,WUHU216HW,2013-01-31 21:10:00,
2013-01-31 15:15:00,10.8,5.8,29.86,North,0,6.0,10.5,80,0.00,,,0.00,WUHU216HW,2013-01-31 21:15:00,
2013-01-31 15:20:00,10.8,6.0,29.86,NW,315,4.9,10.5,81,0.00,,,0.00,WUHU216HW,2013-01-31 21:20:00,
2013-01-31 15:25:00,10.6,6.1,29.86,North,0,3.6,8.5,82,0.00,,,0.00,WUHU216HW,2013-01-31 21:25:00,
2013-01-31 15:30:00,10.6,6.1,29.87,West,270,5.1,5.6,82,0.00,,,0.00,WUHU216HW,2013-01-31 21:30:00,
2013-01-31 15:35:00,10.4,6.2,29.87,North,0,5.4,6.9,83,0.00,,,0.00,WUHU216HW,2013-01-31 21:35:00,
2013-01-31 15:40:00,10.1,5.9,29.87,North,0,10.7,10.7,83,0.00,,,0.00,WUHU216HW,2013-01-31 21:40:00,
2013-01-31 15:45:00,9.7,5.6,29.87,North,0,6.0,10.7,83,0.00,,,0.00,WUHU216HW,2013-01-31 21:45:00,
2013-01-31 15:50:00,9.7,5.6,29.88,NNW,338,5.4,10.1,83,0.00,,,0.00,WUHU216HW,2013-01-31 21:50:00,
2013-01-31 15:55:00,9.7,5.6,29.88,NNW,338,6.5,10.1,83,0.00,,,0.00,WUHU216HW,2013-01-31 21:55:00,
2013-01-31 16:00:00,9.5,4.6,29.88,NNE,23,10.1,13.0,80,0.00,,,0.00,WUHU216HW,2013-01-31 22:00:00,
2013-01-31 16:05:00,9.4,4.4,29.89,NNW,338,5.6,13.0,80,0.00,,,0.00,WUHU216HW,2013-01-31 22:05:00,
2013-01-31 16:10:00,9.4,4.1,29.89,WNW,293,9.2,11.6,79,0.00,,,0.00,WUHU216HW,2013-01-31 22:10:00,
2013-01-31 16:15:00,9.0,3.8,29.89,NNE,23,7.8,10.5,79,0.00,,,0.00,WUHU216HW,2013-01-31 22:15:00,
2013-01-31 16:20:00,9.0,3.5,29.89,NNW,338,6.9,10.5,78,0.00,,,0.00,WUHU216HW,2013-01-31 22:20:00,
2013-01-31 16:25:00,9.0,3.5,29.89,SE,135,6.9,10.5,78,0.00,,,0.00,WUHU216HW,2013-01-31 22:25:00,
2013-01-31 16:30:00,8.8,3.1,29.89,North,0,6.3,9.2,77,0.00,,,0.00,WUHU216HW,2013-01-31 22:30:00,
2013-01-31 16:35:00,8.6,2.6,29.89,North,0,5.6,9.2,76,0.00,,,0.00,WUHU216HW,2013-01-31 22:35:00,
2013-01-31 16:40:00,8.6,2.3,29.90,North,0,5.4,11.4,75,0.00,,,0.00,WUHU216HW,2013-01-31 22:40:00,
2013-01-31 16:45:00,8.5,2.2,29.90,NNE,23,8.3,11.4,75,0.00,,,0.00,WUHU216HW,2013-01-31 22:45:00,
2013-01-31 16:50:00,8.3,2.5,29.91,ENE,68,6.9,8.3,77,0.00,,,0.00,WUHU216HW,2013-01-31 22:50:00,
2013-01-31 16:55:00,8.1,2.3,29.91,WNW,293,4.7,8.5,77,0.00,,,0.00,WUHU216HW,2013-01-31 22:55:00,
2013-01-31 17:00:00,7.9,2.5,29.91,NNE,23,2.7,10.5,78,0.00,,,0.00,WUHU216HW,2013-01-31 23:00:00,
2013-01-31 17:05:00,8.1,3.0,29.91,West,270,4.0,10.5,79,0.00,,,0.00,WUHU216HW,2013-01-31 23:05:00,
2013-01-31 17:10:00,8.1,3.2,29.91,North,0,6.3,8.1,80,0.00,,,0.00,WUHU216HW,2013-01-31 23:10:00,
2013-01-31 17:15:00,8.3,3.4,29.92,SW,225,3.4,8.1,80,0.00,,,0.00,WUHU216HW,2013-01-31 23:15:00,
2013-01-31 17:20:00,8.3,3.7,29.92,NW,315,4.5,6.9,81,0.00,,,0.00,WUHU216HW,2013-01-31 23:20:00,
2013-01-31 17:25:00,7.9,3.3,29.92,NW,315,4.3,9.2,81,0.00,,,0.00,WUHU216HW,2013-01-31 23:25:00,
2013-01-31 17:30:00,7.7,3.4,29.92,WNW,293,4.7,9.2,82,0.00,,,0.00,WUHU216HW,2013-01-31 23:30:00,
2013-01-31 17:35:00,7.6,3.3,29.93,NNE,23,4.7,8.3,82,0.00,,,0.00,WUHU216HW,2013-01-31 23:35:00,
2013-01-31 17:40:00,7.6,3.4,29.93,North,0,5.8,8.3,83,0.00,,,0.00,WUHU216HW,2013-01-31 23:40:00,
2013-01-31 17:45:00,7.6,3.4,29.94,ENE,68,5.4,7.8,83,0.00,,,0.00,WUHU216HW,2013-01-31 23:45:00,
2013-01-31 17:50:00,7.6,3.4,29.94,North,0,7.8,7.8,83,0.00,,,0.00,WUHU216HW,2013-01-31 23:50:00,
2013-01-31 17:55:00,7.6,3.4,29.94,North,0,5.4,7.8,83,0.00,,,0.00,WUHU216HW,2013-01-31 23:55:00,
2013-01-31 18:00:00,7.6,3.4,29.94,NW,315,4.0,7.8,83,0.00,,,0.00,WUHU216HW,2013-02-01 00:00:00,
2013-01-31 18:05:00,7.2,2.9,29.94,WNW,293,4.0,6.3,82,0.00,,,0.00,WUHU216HW,2013-02-01 00:05:00,
2013-01-31 18:10:00,7.0,2.7,29.95,North,0,4.3,6.9,82,0.00,,,0.00,WUHU216HW,2013-02-01 00:10:00,
2013-01-31 18:15:00,6.8,2.5,29.95,NNE,23,5.1,6.9,82,0.00,,,0.00,WUHU216HW,2013-02-01 00:15:00,
2013-01-31 18:20:00,6.7,2.4,29.95,NNE,23,4.9,6.7,82,0.00,,,0.00,WUHU216HW,2013-02-01 00:20:00,
2013-01-31 18:25:00,6.5,2.2,29.96,NW,315,4.7,6.3,82,0.00,,,0.00,WUHU216HW,2013-02-01 00:25:00,
2013-01-31 18:30:00,6.5,2.2,29.96,NNW,338,6.3,6.3,82,0.00,,,0.00,WUHU216HW,2013-02-01 00:30:00,
2013-01-31 18:35:00,6.3,1.7,29.96,WNW,293,4.3,8.3,81,0.00,,,0.00,WUHU216HW,2013-02-01 00:35:00,
2013-01-31 18:40:00,6.1,1.8,29.97,NW,315,1.8,8.3,82,0.00,,,0.00,WUHU216HW,2013-02-01 00:40:00,
2013-01-31 18:45:00,6.1,1.5,29.97,WNW,293,3.4,6.5,81,0.00,,,0.00,WUHU216HW,2013-02-01 00:45:00,
2013-01-31 18:50:00,6.1,1.8,29.97,NW,315,4.0,8.5,82,0.00,,,0.00,WUHU216HW,2013-02-01 00:50:00,
2013-01-31 18:55:00,6.1,1.8,29.97,NE,45,5.1,8.5,82,0.00,,,0.00,WUHU216HW,2013-02-01 00:55:00,
2013-01-31 19:00:00,6.1,2.0,29.98,NNW,338,2.2,7.6,83,0.00,,,0.00,WUHU216HW,2013-02-01 01:00:00,
2013-01-31 19:05:00,5.9,1.8,29.99,NNW,338,6.0,6.9,83,0.00,,,0.00,WUHU216HW,2013-02-01 01:05:00,
2013-01-31 19:10:00,5.9,1.8,29.98,North,0,5.4,8.9,83,0.00,,,0.00,WUHU216HW,2013-02-01 01:10:00,
2013-01-31 19:15:00,6.1,2.0,29.99,NNW,338,6.3,8.9,83,0.00,,,0.00,WUHU216HW,2013-02-01 01:15:00,
2013-01-31 19:20:00,5.9,1.8,29.99,NNE,23,5.8,7.8,83,0.00,,,0.00,WUHU216HW,2013-02-01 01:20:00,
2013-01-31 19:25:00,5.8,1.6,29.99,North,0,5.1,7.2,83,0.00,,,0.00,WUHU216HW,2013-02-01 01:25:00,
2013-01-31 19:30:00,5.8,1.6,30.00,NNE,23,4.7,6.9,83,0.00,,,0.00,WUHU216HW,2013-02-01 01:30:00,
2013-01-31 19:35:00,5.8,1.6,30.00,NW,315,2.2,7.8,83,0.00,,,0.00,WUHU216HW,2013-02-01 01:35:00,
2013-01-31 19:40:00,5.8,1.6,30.00,North,0,5.1,8.3,83,0.00,,,0.00,WUHU216HW,2013-02-01 01:40:00,
2013-01-31 19:45:00,5.4,1.1,30.00,NW,315,4.5,8.3,82,0.00,,,0.00,WUHU216HW,2013-02-01 01:45:00,
2013-01-31 19:50:00,5.2,0.9,30.01,NNW,338,3.6,6.9,82,0.00,,,0.00,WUHU216HW,2013-02-01 01:50:00,
2013-01-31 19:55:00,4.9,0.6,30.01,NNE,23,4.5,6.5,82,0.00,,,0.00,WUHU216HW,2013-02-01 01:55:00,
2013-01-31 20:00:00,4.7,0.4,30.01,North,0,6.0,6.5,82,0.00,,,0.00,WUHU216HW,2013-02-01 02:00:00,
2013-01-31 20:05:00,4.7,0.4,30.01,North,0,3.8,6.7,82,0.00,,,0.00,WUHU216HW,2013-02-01 02:05:00,
2013-01-31 20:10:00,4.5,0.2,30.01,North,0,2.9,6.7,82,0.00,,,0.00,WUHU216HW,2013-02-01 02:10:00,
2013-01-31 20:15:00,4.5,-0.1,30.02,WSW,248,3.4,6.5,81,0.00,,,0.00,WUHU216HW,2013-02-01 02:15:00,
2013-01-31 20:20:00,4.3,-0.3,30.02,WSW,248,5.1,6.9,81,0.00,,,0.00,WUHU216HW,2013-02-01 02:20:00,
2013-01-31 20:25:00,4.1,-0.7,30.02,NNW,338,4.7,6.9,80,0.00,,,0.00,WUHU216HW,2013-02-01 02:25:00,
2013-01-31 20:30:00,4.0,-0.9,30.02,NNE,23,8.5,11.4,80,0.00,,,0.00,WUHU216HW,2013-02-01 02:30:00,
2013-01-31 20:35:00,4.0,-1.2,30.02,NW,315,7.2,12.8,79,0.00,,,0.00,WUHU216HW,2013-02-01 02:35:00,
2013-01-31 20:40:00,4.0,-1.4,30.03,SW,225,3.8,12.8,78,0.00,,,0.00,WUHU216HW,2013-02-01 02:40:00,
2013-01-31 20:45:00,3.8,-1.3,30.03,NNW,338,4.9,12.1,79,0.00,,,0.00,WUHU216HW,2013-02-01 02:45:00,
2013-01-31 20:50:00,3.6,-1.3,30.03,North,0,2.5,6.9,80,0.00,,,0.00,WUHU216HW,2013-02-01 02:50:00,
2013-01-31 20:55:00,3.4,-1.4,30.03,North,0,6.3,6.9,80,0.00,,,0.00,WUHU216HW,2013-02-01 02:55:00,
2013-01-31 21:00:00,3.2,-1.6,30.03,NW,315,6.0,6.9,80,0.00,,,0.00,WUHU216HW,2013-02-01 03:00:00,
2013-01-31 21:05:00,3.2,-1.6,30.04,NNE,23,8.7,8.7,80,0.00,,,0.00,WUHU216HW,2013-02-01 03:05:00,
2013-01-31 21:10:00,3.2,-2.2,30.04,North,0,8.5,10.7,78,0.00,,,0.00,WUHU216HW,2013-02-01 03:10:00,
2013-01-31 21:15:00,3.2,-2.2,30.04,North,0,10.1,12.3,78,0.00,,,0.00,WUHU216HW,2013-02-01 03:15:00,
2013-01-31 21:20:00,3.1,-2.6,30.04,NNW,338,5.6,12.3,77,0.00,,,0.00,WUHU216HW,2013-02-01 03:20:00,
2013-01-31 21:25:00,2.9,-2.8,30.05,NW,315,2.9,11.0,77,0.00,,,0.00,WUHU216HW,2013-02-01 03:25:00,
2013-01-31 21:30:00,2.5,-3.1,30.05,North,0,6.9,6.9,77,0.00,,,0.00,WUHU216HW,2013-02-01 03:30:00,
2013-01-31 21:35:00,2.7,-3.0,30.05,North,0,7.4,9.2,77,0.00,,,0.00,WUHU216HW,2013-02-01 03:35:00,
2013-01-31 21:40:00,2.5,-3.1,30.05,North,0,3.8,9.6,77,0.00,,,0.00,WUHU216HW,2013-02-01 03:40:00,
2013-01-31 21:45:00,2.5,-3.1,30.05,NW,315,2.5,9.6,77,0.00,,,0.00,WUHU216HW,2013-02-01 03:45:00,
2013-01-31 21:50:00,2.3,-3.3,30.05,North,0,4.0,6.7,77,0.00,,,0.00,WUHU216HW,2013-02-01 03:50:00,
2013-01-31 21:55:00,2.2,-3.5,30.05,NNW,338,7.2,7.2,77,0.00,,,0.00,WUHU216HW,2013-02-01 03:55:00,
2013-01-31 22:00:00,2.2,-3.5,30.06,North,0,7.4,7.4,77,0.00,,,0.00,WUHU216HW,2013-02-01 04:00:00,
2013-01-31 22:05:00,2.2,-3.8,30.06,NE,45,6.9,8.5,76,0.00,,,0.00,WUHU216HW,2013-02-01 04:05:00,
2013-01-31 22:10:00,2.2,-3.8,30.06,North,0,8.5,11.4,76,0.00,,,0.00,WUHU216HW,2013-02-01 04:10:00,
2013-01-31 22:15:00,2.0,-4.0,30.07,North,0,4.9,11.4,76,0.00,,,0.00,WUHU216HW,2013-02-01 04:15:00,
2013-01-31 22:20:00,2.0,-4.0,30.07,NNW,338,5.8,9.2,76,0.00,,,0.00,WUHU216HW,2013-02-01 04:20:00,
2013-01-31 22:25:00,2.0,-4.2,30.07,NNE,23,5.8,9.2,75,0.00,,,0.00,WUHU216HW,2013-02-01 04:25:00,
2013-01-31 22:30:00,2.0,-4.2,30.07,North,0,4.9,9.4,75,0.00,,,0.00,WUHU216HW,2013-02-01 04:30:00,
2013-01-31 22:35:00,1.8,-4.4,30.07,North,0,3.6,9.4,75,0.00,,,0.00,WUHU216HW,2013-02-01 04:35:00,
2013-01-31 22:40:00,1.6,-4.3,30.07,North,0,2.9,6.3,76,0.00,,,0.00,WUHU216HW,2013-02-01 04:40:00,
2013-01-31 22:45:00,1.6,-4.3,30.07,NW,315,4.0,8.1,76,0.00,,,0.00,WUHU216HW,2013-02-01 04:45:00,
2013-01-31 22:50:00,1.6,-4.3,30.07,North,0,2.9,8.1,76,0.00,,,0.00,WUHU216HW,2013-02-01 04:50:00,
2013-01-31 22:56:00,1.4,-4.5,30.07,NW,315,3.6,7.2,76,0.00,,,0.00,WUHU216HW,2013-02-01 04:56:00,
2013-01-31 23:00:00,1.3,-4.7,30.08,North,0,4.3,6.3,76,0.00,,,0.00,WUHU216HW,2013-02-01 05:00:00,
2013-01-31 23:01:00,1.3,-4.7,30.08,NNW,338,5.6,6.3,76,0.00,,,0.00,WUHU216HW,2013-02-01 05:01:00,
2013-01-31 23:02:00,1.3,-4.7,30.08,NNW,338,4.7,6.3,76,0.00,,,0.00,WUHU216HW,2013-02-01 05:02:00,
2013-01-31 23:07:00,1.1,-4.9,30.08,North,0,4.5,6.9,76,0.00,,,0.00,WUHU216HW,2013-02-01 05:07:00,
2013-01-31 23:12:00,1.1,-4.9,30.08,North,0,3.4,6.9,76,0.00,,,0.00,WUHU216HW,2013-02-01 05:12:00,
2013-01-31 23:17:00,1.1,-4.9,30.08,NNW,338,2.9,6.5,76,0.00,,,0.00,WUHU216HW,2013-02-01 05:17:00,
2013-01-31 23:22:00,1.1,-4.9,30.09,WSW,248,3.4,5.4,76,0.00,,,0.00,WUHU216HW,2013-02-01 05:22:00,
2013-01-31 23:27:00,0.9,-4.8,30.09,NNE,23,2.2,5.4,77,0.00,,,0.00,WUHU216HW,2013-02-01 05:27:00,
2013-01-31 23:32:00,0.9,-5.0,30.09,NNW,338,2.2,5.4,76,0.00,,,0.00,WUHU216HW,2013-02-01 05:32:00,
2013-01-31 23:37:00,0.7,-4.8,30.09,West,270,4.0,5.4,77,0.00,,,0.00,WUHU216HW,2013-02-01 05:37:00,
2013-01-31 23:42:00,0.7,-4.8,30.09,North,0,5.4,5.6,77,0.00,,,0.00,WUHU216HW,2013-02-01 05:42:00,
2013-01-31 23:47:00,0.7,-5.2,30.09,WNW,293,4.9,6.5,76,0.00,,,0.00,WUHU216HW,2013-02-01 05:47:00,
2013-01-31 23:52:00,0.9,-5.0,30.09,North,0,2.5,6.9,76,0.00,,,0.00,WUHU216HW,2013-02-01 05:52:00,
2013-01-31 23:57:00,0.7,-5.2,30.09,NNE,23,3.8,6.9,76,0.00,,,0.00,WUHU216HW,2013-02-01 05:57:00,